Date String (YYYY-MM-DD hh:mm:ss) UTC,Instrument flags,Ambient pressure (hPa),Sample flow (lpm),Bypass flow (lpm),Sample temperature (°C),Ambient temperature (°C),ASC tube jacket temperature (°C),LED temperature (°C),Box temperature (°C),Sample RH (%),Span deviation,Mass concentration (μg/m³),Mass concentration (μg/m³),Mass concentration (μg/m³)
DateTimeUTC,F1_M11,P_M11,Q1_M11,Q2_M11,T1_M11,T2_M11,T3_M11,T4_M11,T5_M11,U1_M11,ZSPAN_M11,X0_M11,X2_M11,X1_M11
2021-11-15 10:00:00,,0825.1,5.01,0.00,26.5,25.5,00.0,35.5,28.3,12.1,0000.0,0006.17,0001.01,0000.36
2021-11-15 10:01:00,,0825.1,5.00,0.00,26.5,25.5,00.0,35.5,28.3,12.3,0000.0,0006.71,0001.01,0000.36
2021-11-15 10:02:00,,0825.2,5.00,0.00,26.5,25.5,00.0,35.5,28.3,12.2,0000.0,0007.37,0000.96,0000.36
2021-11-15 10:03:00,,0825.3,5.00,0.00,26.5,25.5,00.0,35.5,28.3,12.4,0000.0,0007.35,0000.95,0000.36
2021-11-15 10:04:00,,0825.3,5.00,0.00,26.5,25.5,00.0,35.5,28.3,12.6,0000.0,0007.33,0000.98,0000.35
2021-11-15 10:05:00,,0825.2,5.00,0.00,26.5,25.6,00.0,35.5,28.3,12.5,0000.0,0007.24,0000.96,0000.35
2021-11-15 10:06:00,,0825.0,5.00,0.00,26.5,25.6,00.0,35.5,28.3,12.0,0000.0,0005.75,0000.93,0000.35
2021-11-15 10:07:00,,0825.1,5.00,0.00,26.5,25.5,00.0,35.5,28.3,11.9,0000.0,0005.64,0000.98,0000.34
2021-11-15 10:08:00,,0825.1,5.00,0.00,26.5,25.5,00.0,35.5,28.3,12.0,0000.0,0004.55,0000.92,0000.33
2021-11-15 10:09:00,,0825.3,5.01,0.00,26.5,25.5,00.0,35.5,28.3,11.9,0000.0,0003.96,0000.88,0000.33
2021-11-15 10:10:00,,0825.3,5.00,0.00,26.5,25.5,00.0,35.5,28.2,12.1,0000.0,0003.92,0000.88,0000.32
2021-11-15 10:11:00,,0825.3,5.01,0.00,26.4,25.6,00.0,35.5,28.2,12.3,0000.0,0003.74,0000.89,0000.32
2021-11-15 10:12:00,,0825.4,5.00,0.00,26.5,25.6,00.0,35.5,28.3,12.2,0000.0,0003.09,0000.82,0000.31
2021-11-15 10:13:00,,0825.4,5.00,0.00,26.5,25.6,00.0,35.5,28.2,12.2,0000.0,0002.19,0000.83,0000.31
2021-11-15 10:14:00,,0825.5,4.99,0.00,26.5,25.6,00.0,35.5,28.2,12.2,0000.0,0002.84,0000.82,0000.31
2021-11-15 10:15:00,,0825.4,5.01,0.00,26.5,25.6,00.0,35.5,28.2,12.3,0000.0,0004.40,0000.78,0000.31
2021-11-15 10:16:00,,0825.4,4.99,0.00,26.5,25.6,00.0,35.5,28.2,12.4,0000.0,0004.41,0000.77,0000.31
2021-11-15 10:17:00,,0825.5,5.00,0.00,26.5,25.6,00.0,35.5,28.3,11.7,0000.0,0004.35,0000.76,0000.31
2021-11-15 10:18:00,,0825.5,5.00,0.00,26.5,25.6,00.0,35.5,28.2,11.8,0000.0,0004.03,0000.68,0000.30
2021-11-15 10:19:00,,0825.6,5.01,0.00,26.5,25.6,00.0,35.5,28.2,12.2,0000.0,0003.91,0000.65,0000.29
2021-11-15 10:20:00,,0825.5,5.00,0.00,26.5,25.6,00.0,35.5,28.2,12.5,0000.0,0003.74,0000.61,0000.29
2021-11-15 10:21:00,,0825.6,5.01,0.00,26.5,25.7,00.0,35.5,28.3,12.9,0000.0,0003.69,0000.61,0000.30
2021-11-15 10:22:00,,0825.6,5.00,0.00,26.5,25.6,00.0,35.5,28.3,13.0,0000.0,0003.58,0000.57,0000.30
2021-11-15 10:23:00,,0825.5,5.01,0.00,26.5,25.6,00.0,35.5,28.2,13.0,0000.0,0003.59,0000.56,0000.30
2021-11-15 10:24:00,,0825.5,5.00,0.00,26.5,25.6,00.0,35.5,28.2,13.1,0000.0,0003.72,0000.53,0000.30
2021-11-15 10:25:00,,0825.5,5.00,0.00,26.5,25.6,00.0,35.5,28.3,13.0,0000.0,0003.31,0000.53,0000.30
2021-11-15 10:26:00,,0825.5,5.00,0.00,26.5,25.6,00.0,35.5,28.3,13.0,0000.0,0001.63,0000.57,0000.31
2021-11-15 10:27:00,,0825.6,5.01,0.00,26.5,25.6,00.0,35.5,28.3,13.0,0000.0,0001.47,0000.60,0000.32
2021-11-15 10:28:00,,0825.6,4.99,0.00,26.5,25.6,00.0,35.5,28.2,13.0,0000.0,0001.57,0000.63,0000.33
2021-11-15 10:29:00,,0825.6,5.01,0.00,26.5,25.7,00.0,35.5,28.3,12.9,0000.0,0001.53,0000.62,0000.33
2021-11-15 10:30:00,,0825.6,5.00,0.00,26.5,25.7,00.0,35.5,28.3,13.0,0000.0,0001.51,0000.61,0000.34
2021-11-15 10:31:00,,0825.6,4.99,0.00,26.5,25.6,00.0,35.5,28.4,13.0,0000.0,0001.55,0000.61,0000.34
2021-11-15 10:32:00,,0825.6,5.01,0.00,26.5,25.7,00.0,35.5,28.3,12.9,0000.0,0001.40,0000.56,0000.34
2021-11-15 10:33:00,,0825.6,4.99,0.00,26.5,25.7,00.0,35.5,28.2,12.9,0000.0,0001.70,0000.57,0000.34
2021-11-15 10:34:00,,0825.7,5.00,0.00,26.5,25.7,00.0,35.5,28.3,12.8,0000.0,0002.95,0000.58,0000.34
2021-11-15 10:35:00,,0825.7,5.01,0.00,26.5,25.7,00.0,35.5,28.3,12.8,0000.0,0002.98,0000.67,0000.35
2021-11-15 10:36:00,,0825.7,5.01,0.00,26.5,25.7,00.0,35.5,28.3,12.8,0000.0,0003.05,0000.70,0000.36
2021-11-15 10:37:00,,0825.7,5.00,0.00,26.5,25.7,00.0,35.5,28.3,12.8,0000.0,0003.15,0000.68,0000.35
2021-11-15 10:38:00,,0825.8,4.99,0.00,26.5,25.7,00.0,35.5,28.2,12.8,0000.0,0003.04,0000.65,0000.34
2021-11-15 10:39:00,,0825.6,5.00,0.00,26.5,25.7,00.0,35.5,28.2,12.8,0000.0,0002.97,0000.64,0000.34
2021-11-15 10:40:00,,0825.6,5.01,0.00,26.5,25.7,00.0,35.5,28.3,12.8,0000.0,0003.04,0000.66,0000.34
2021-11-15 10:41:00,,0825.7,5.00,0.00,26.5,25.7,00.0,35.5,28.3,12.8,0000.0,0004.46,0000.70,0000.35
2021-11-15 10:42:00,,0825.7,4.99,0.00,26.5,25.6,00.0,35.5,28.3,12.8,0000.0,0005.42,0000.68,0000.35
2021-11-15 10:43:00,,0825.7,5.00,0.00,26.5,25.6,00.0,35.5,28.2,12.8,0000.0,0005.38,0000.66,0000.35
2021-11-15 10:44:00,,0825.7,5.01,0.00,26.5,25.6,00.0,35.5,28.2,12.8,0000.0,0005.29,0000.66,0000.35
2021-11-15 10:45:00,,0825.7,5.00,0.00,26.5,25.6,00.0,35.5,28.2,12.8,0000.0,0004.53,0000.67,0000.36
2021-11-15 10:46:00,,0825.7,5.00,0.00,26.5,25.6,00.0,35.5,28.3,12.7,0000.0,0004.31,0000.62,0000.35
2021-11-15 10:47:00,,0825.9,4.99,0.00,26.5,25.7,00.0,35.5,28.3,12.6,0000.0,0004.28,0000.60,0000.34
2021-11-15 10:48:00,,0825.6,5.00,0.00,26.5,25.7,00.0,35.5,28.2,12.1,0000.0,0004.04,0000.57,0000.34
2021-11-15 10:49:00,,0825.7,5.01,0.00,26.5,25.7,00.0,35.5,28.3,12.2,0000.0,0004.05,0000.58,0000.34
2021-11-15 10:50:00,,0825.8,5.00,0.00,26.5,25.7,00.0,35.5,28.2,12.4,0000.0,0004.02,0000.56,0000.34
2021-11-15 10:51:00,,0825.9,5.01,0.00,26.5,25.6,00.0,35.5,28.2,12.5,0000.0,0003.96,0000.55,0000.34
2021-11-15 10:52:00,,0825.8,4.99,0.00,26.5,25.7,00.0,35.5,28.3,12.4,0000.0,0002.50,0000.53,0000.34
2021-11-15 10:53:00,,0825.9,5.01,0.00,26.6,25.7,00.0,35.6,28.3,12.4,0000.0,0001.53,0000.52,0000.34
2021-11-15 10:54:00,,0825.8,5.00,0.00,26.6,25.7,00.0,35.6,28.3,12.3,0000.0,0001.53,0000.52,0000.34
2021-11-15 10:55:00,,0825.8,4.99,0.00,26.6,25.7,00.0,35.6,28.3,12.2,0000.0,0001.47,0000.50,0000.33
2021-11-15 10:56:00,,0825.9,5.00,0.00,26.6,25.7,00.0,35.6,28.3,12.1,0000.0,0000.87,0000.48,0000.33
2021-11-15 10:57:00,,0825.8,5.01,0.00,26.6,25.7,00.0,35.6,28.3,12.2,0000.0,0000.81,0000.48,0000.33
2021-11-15 10:58:00,,0825.9,5.01,0.00,26.6,25.7,00.0,35.6,28.3,12.2,0000.0,0000.86,0000.51,0000.33
2021-11-15 10:59:00,,0826.0,5.00,0.00,26.6,25.7,00.0,35.6,28.3,12.3,0000.0,0000.90,0000.54,0000.34
